Location: Unspecified
(0.0000°N, 0.0000°E)
Time: 23:57:53
(UTC+00:00)

STARLINK-1273 - Pass Details

Date: 21 February 2026
Orbit: 434 x 436 km, 53.1° (Epoch: 7 March)

Event Time Altitude Azimuth Distance (km) Brightness Sun altitude
Exits shadow 05:00:54 - 202° (SSW) 2,360 6.7 -17.9°
Reaches altitude 10° 05:02:59 10° 195° (SSW) 1,534 5.9 -17.4°
Maximum altitude 05:06:14 39° 124° (SE) 660 4.5 -16.6°
Drops below altitude 10° 05:09:29 10° 53° (NE) 1,532 6.5 -15.8°
Sets 05:11:40 0° 46° (NE) 2,400 7.4 -15.2°
